CAPE
0 0 0 0 0 0 0 0 0 0 0 0 0 0 0 0 0 0 0 0 0 0 0 0 0 7 145 393 795 1012 1212 1417 1430 1496 1643 1902 2023 2222 2332 2408 2418 2419 2304 2162
0 0 0 0 0 0 0 0 0 0 0 0 0 0 0 0 0 0 0 0 0 0 0 12 25 50 173 476 859 1135 1300 1439 1575 1636 1718 1945 2100 2176 2257 2310 2167 2076 2217 2373
0 0 0 0 0 0 0 0 0 0 0 0 0 0 0 0 0 0 0 0 0 0 1 7 40 167 250 632 1039 1219 1349 1511 1519 1589 1768 2042 2128 2045 2154 1939 2083 2182 1863 1793
0 0 0 0 0 0 0 0 0 0 0 0 0 0 0 0 0 0 0 0 0 0 45 99 191 306 403 888 1151 1320 1365 1433 1492 1559 1790 2112 2182 2081 1945 1677 1297 1283 980 55
0 0 0 0 0 0 0 0 0 0 0 0 0 0 0 0 0 0 0 0 0 0 256 729 730 832 864 1077 1245 1345 1348 1384 1566 1824 2080 1750 648 87 55 609 523 239 0 0
0 0 0 0 0 0 0 0 0 0 0 0 3 0 0 0 0 0 0 0 0 63 877 1244 1357 1374 1280 1262 1368 1421 1574 1699 1701 1694 1536 1017 472 0 0 66 120 0 0 12
0 0 0 0 0 0 0 0 0 0 0 0 0 20 1 53 11 0 0 0 133 723 1298 1631 1769 1660 1587 1594 1705 1732 1596 1522 1446 906 745 752 73 0 0 110 0 0 0 29
0 0 0 0 0 0 0 0 0 0 0 0 1 43 154 122 0 0 189 306 921 1397 1552 1916 1914 1889 1835 1741 1447 1307 1177 997 931 788 427 18 41 176 142 62 97 38 34 11
0 0 0 0 0 0 0 0 0 0 0 0 47 168 460 121 28 330 697 1272 1713 1683 1997 2150 2017 1813 1694 1253 983 877 1009 1154 719 250 286 271 313 169 191 350 312 229 258 219
0 0 0 0 0 0 0 0 0 0 5 143 331 876 789 497 760 1159 1666 1804 1714 1620 1911 1918 1572 1472 1272 964 1010 1039 753 315 92 2 3 47 155 222 469 445 354 312 144 0
0 0 0 0 0 0 0 0 43 36 11 393 1260 1293 975 1214 1191 1596 1590 1242 1428 1517 1300 1036 766 764 476 349 242 85 45 105 77 12 16 127 20 0 0 0 0 0 0 0
0 0 0 0 0 0 0 0 14 0 0 501 2038 845 961 928 766 706 644 620 777 845 915 392 238 39 0 0 0 6 4 4 44 34 11 0 0 0 0 0 0 0 0 0
0 0 0 0 0 0 0 32 62 6 2 20 1293 730 590 753 591 383 335 481 429 226 131 60 23 43 1 0 0 0 15 21 13 1 0 0 0 0 0 0 0 0 0 0
0 0 0 0 0 0 0 136 32 0 32 2 370 538 420 442 427 377 322 178 110 48 34 20 13 0 0 0 0 0 0 0 0 0 0 0 0 0 0 0 0 0 0 0
0 0 0 0 0 0 18 61 7 0 0 0 234 644 144 261 267 197 130 24 2 0 0 0 0 0 0 0 0 0 0 0 0 0 0 0 0 0 0 0 0 0 0 0
0 0 0 0 11 0 91 9 0 0 0 0 0 10 20 33 92 70 38 27 11 4 0 0 0 0 0 0 0 0 0 0 0 0 0 0 0 0 0 0 0 0 0 0
30 11 5 29 129 80 54 2 0 0 0 0 76 237 193 140 26 90 29 0 0 0 0 0 0 0 0 0 0 0 0 0 0 0 0 0 0 0 0 0 0 0 0 0
2 1 6 35 83 23 34 4 1 0 0 19 79 414 205 185 125 44 14 0 0 0 0 0 0 0 0 0 0 0 0 0 0 0 0 0 0 0 0 0 0 0 0 0
59 120 126 84 41 44 43 22 40 127 81 21 370 219 176 126 38 1 0 0 0 0 0 0 0 0 0 0 0 0 0 0 0 0 0 0 0 0 0 0 0 0 0 0
45 35 212 97 17 102 11 64 397 255 231 266 208 180 144 49 24 9 0 0 0 0 0 0 0 0 0 0 0 0 0 0 0 0 0 0 0 0 0 0 0 0 0 0
136 205 76 46 42 6 5 0 163 272 245 194 211 213 136 21 0 0 0 0 0 0 0 0 0 0 0 0 0 0 0 0 0 0 0 0 0 0 0 0 0 0 0 0
105 154 155 241 112 44 5 100 111 82 100 117 131 111 65 21 0 0 0 0 0 0 0 0 0 0 0 0 0 0 0 0 0 0 0 0 0 0 0 0 0 0 0 0
3 42 32 39 37 46 30 30 49 94 93 75 90 63 29 4 0 0 0 0 0 0 0 0 0 0 0 0 0 0 0 0 0 0 0 0 0 0 0 0 0 0 0 0
4 0 2 8 24 58 49 26 19 2 22 27 15 1 6 0 0 0 0 0 0 0 0 0 0 0 0 0 0 0 0 0 0 0 0 0 0 0 0 0 0 0 0 0
0 0 0 0 0 5 4 1 1 2 0 0 0 1 0 0 0 0 0 0 0 0 0 0 0 0 0 0 0 0 0 0 0 0 0 0 0 0 0 0 0 0 0 0
0 0 0 0 0 0 4 11 1 0 0 0 0 0 0 0 0 0 0 0 0 0 0 0 0 0 0 0 0 0 0 0 0 0 0 0 0 0 0 0 0 0 0 0
0 0 0 0 0 0 0 0 0 5 0 4 2 0 0 0 0 0 0 0 0 0 0 0 0 0 0 0 0 0 0 0 0 0 0 0 0 0 0 0 0 0 0 0
CIN
0 0 0 0 0 0 0 0 0 0 0 0 0 0 0 0 0 0 0 0 0 0 0 0 0 -552 -533 -486 -446 -420 -382 -372 -311 -263 -234 -200 -172 -132 -103 -96 -84 -60 -43 -48
0 0 0 0 0 0 0 0 0 0 0 0 0 0 0 0 0 0 0 0 0 0 0 -298 -397 -471 -527 -540 -510 -471 -418 -346 -294 -255 -210 -161 -113 -98 -88 -82 -73 -69 -52 -31
0 0 0 0 0 0 0 0 0 0 0 0 0 0 0 0 0 0 0 0 0 0 -67 -288 -387 -446 -436 -553 -554 -459 -422 -360 -288 -211 -131 -123 -104 -89 -70 -76 -69 -50 -57 -74
0 0 0 0 0 0 0 0 0 0 0 0 0 0 0 0 0 0 0 0 0 0 -347 -329 -366 -499 -593 -591 -518 -470 -434 -354 -288 -182 -117 -117 -100 -76 -98 -88 -82 -96 -141 -153
0 0 0 0 0 0 0 0 0 0 0 0 0 0 0 0 0 0 0 0 0 0 -346 -505 -503 -618 -600 -609 -572 -518 -427 -358 -258 -146 -141 -169 -398 -669 -37 -123 -119 -220 0 0
0 0 0 0 0 0 0 0 0 0 0 0 -720 0 0 0 0 0 0 0 0 -470 -532 -521 -565 -638 -581 -567 -489 -426 -405 -392 -357 -301 -274 -342 -373 0 0 -245 -222 0 0 -418
0 0 0 0 0 0 0 0 0 0 0 0 0 -695 -58 -744 -373 0 0 0 -586 -522 -559 -561 -652 -594 -475 -480 -443 -507 -499 -460 -419 -509 -469 -421 -530 0 0 -272 -58 0 0 -341
0 0 0 0 0 0 0 0 0 0 0 0 -203 -691 -646 -527 0 0 -398 -493 -631 -614 -587 -655 -610 -516 -517 -491 -590 -608 -614 -575 -432 -351 -460 -607 -543 -484 -238 -220 -214 -113 -125 -242
0 0 0 0 0 0 0 0 0 0 0 0 -757 -643 -534 -436 -540 -410 -438 -574 -670 -620 -677 -609 -608 -585 -570 -642 -662 -607 -473 -344 -408 -547 -466 -388 -301 -284 -208 -135 -76 -76 -111 -116
0 0 0 0 0 0 0 0 0 0 -78 -638 -575 -504 -441 -606 -509 -493 -588 -620 -833 -809 -696 -614 -649 -609 -600 -612 -500 -387 -396 -554 -636 -190 -678 -550 -357 -220 -109 -110 -123 -118 -132 0
0 0 0 0 0 0 0 0 -521 -502 -553 -489 -325 -436 -558 -576 -666 -701 -776 -925 -824 -776 -779 -775 -764 -644 -654 -664 -621 -649 -698 -638 -602 -659 -619 -435 -90 0 0 0 0 0 0 0
0 0 0 0 0 0 0 0 -454 0 0 -378 -88 -422 -475 -562 -891 -949 -988 -1044 -977 -862 -749 -874 -877 -957 0 0 0 -737 -706 -576 -618 -576 -591 0 0 0 0 0 0 0 0 0
0 0 0 0 0 0 0 -157 -189 -143 -317 -467 -126 -390 -439 -590 -861 -1017 -983 -832 -794 -902 -955 -946 -905 -865 -964 0 0 0 -700 -691 -651 -100 0 0 0 0 0 0 0 0 0 0
0 0 0 0 0 0 0 -38 -127 0 -340 -85 -294 -250 -367 -579 -722 -724 -747 -823 -893 -908 -909 -863 -686 0 0 0 0 0 0 0 0 0 0 0 0 0 0 0 0 0 0 0
0 0 0 0 0 0 -26 -46 -53 0 0 0 -310 -16 -149 -609 -617 -660 -764 -773 -266 0 0 0 0 0 0 0 0 0 0 0 0 0 0 0 0 0 0 0 0 0 0 0
0 -14 -7 0 -68 0 -51 -32 0 0 0 0 0 -1 0 -462 -616 -705 -674 -493 -610 -618 -128 0 0 0 0 0 0 0 0 0 0 0 0 0 0 0 0 0 0 0 0 0
-26 -28 -60 -116 -43 -58 -56 -11 0 0 0 0 -33 -9 -3 -309 -523 -495 -558 0 0 0 0 0 0 0 0 0 0 0 0 0 0 0 0 0 0 0 0 0 0 0 0 0
-16 -26 -37 -32 -9 -65 -134 -57 -9 0 -92 -73 -135 -6 -94 -288 -346 -475 -474 0 0 0 0 0 0 0 0 0 0 0 0 0 0 0 0 0 0 0 0 0 0 0 0 0
-46 -13 -18 -27 -60 -98 -161 -163 -142 -101 -149 -151 -19 -82 -247 -300 -317 -63 0 0 0 0 0 0 0 0 0 0 0 0 0 0 0 0 0 0 0 0 0 0 0 0 0 0
-73 -69 -4 -9 -37 -42 -77 -112 -58 -22 -37 -71 -100 -140 -212 -265 -311 -319 0 0 0 0 0 0 0 0 0 0 0 0 0 0 0 0 0 0 0 0 0 0 0 0 0 0
-86 -72 -75 -77 -49 -35 -30 0 -92 -65 -89 -127 -151 -169 -187 -210 0 0 0 0 0 0 0 0 0 0 0 0 0 0 0 0 0 0 0 0 0 0 0 0 0 0 0 0
-115 -107 -88 -89 -109 -112 -43 -76 -95 -140 -153 -141 -153 -163 -172 -194 0 0 0 0 0 0 0 0 0 0 0 0 0 0 0 0 0 0 0 0 0 0 0 0 0 0 0 0
-42 -94 -143 -151 -133 -113 -94 -118 -107 -91 -105 -110 -91 -86 -101 -45 0 0 0 0 0 0 0 0 0 0 0 0 0 0 0 0 0 0 0 0 0 0 0 0 0 0 0 0
-126 -9 -8 -119 -108 -81 -76 -76 -76 -8 -83 -88 -97 -4 -83 0 0 0 0 0 0 0 0 0 0 0 0 0 0 0 0 0 0 0 0 0 0 0 0 0 0 0 0 0
0 0 0 0 0 -126 -79 -83 -14 -48 -17 0 -22 -98 -21 0 0 0 0 0 0 0 0 0 0 0 0 0 0 0 0 0 0 0 0 0 0 0 0 0 0 0 0 0
0 0 0 0 0 0 -78 -65 -34 0 0 0 -79 0 0 0 0 0 0 0 0 0 0 0 0 0 0 0 0 0 0 0 0 0 0 0 0 0 0 0 0 0 0 0
0 0 0 0 0 0 0 0 0 -45 0 -70 -84 0 0 0 0 0 0 0 0 0 0 0 0 0 0 0 0 0 0 0 0 0 0 0 0 0 0 0 0 0 0 0
Wind_Speed
36 38 36 38 39 35 33 31 32 36 34 36 35 36 36 26 15 16 14 15 21 19 23 23 20 19 19 20 19 16 15 13 13 10 8 6 7 7 5 3 2 2 5 7
42 33 38 43 43 38 37 33 35 37 40 31 34 32 33 33 19 19 19 17 19 21 19 21 22 19 16 17 16 16 16 13 10 9 6 5 5 6 6 8 8 8 8 10
41 36 41 51 48 35 32 33 32 40 40 38 39 36 34 36 34 20 21 19 15 20 26 22 19 17 15 12 11 14 13 11 10 6 4 5 6 10 11 9 9 11 15 14
39 37 50 41 31 36 39 36 33 38 40 38 38 40 41 38 37 21 20 25 22 20 20 17 19 10 10 7 8 10 10 8 6 6 4 6 7 12 16 18 16 13 15 18
37 36 48 52 38 31 35 48 29 36 39 41 40 41 41 36 34 33 25 20 25 24 17 19 13 11 7 6 6 7 7 5 6 5 4 8 8 17 39 21 24 17 17 19
32 36 44 29 22 26 35 55 37 40 41 41 42 42 44 40 39 41 29 17 16 18 15 17 16 11 9 7 6 6 4 4 2 1 1 4 8 28 34 15 19 25 21 24
36 40 39 33 36 35 42 50 43 43 44 46 44 42 50 51 47 43 32 24 18 15 16 14 14 12 9 8 6 5 5 3 1 1 4 7 12 19 7 4 8 21 25 28
34 39 44 28 27 28 35 41 42 46 46 50 50 51 51 50 43 25 15 16 13 13 12 13 13 12 10 8 6 6 5 2 0 2 4 7 9 10 7 4 6 11 23 28
30 32 24 29 32 38 37 42 44 46 48 46 49 52 51 47 32 14 12 14 13 12 9 9 10 12 10 8 7 5 2 0 4 5 6 7 8 9 10 11 12 17 30 32
39 33 37 45 44 36 39 44 46 45 45 45 49 51 48 39 25 19 11 11 14 12 10 9 8 9 10 7 5 3 0 2 5 6 10 13 15 16 14 16 18 24 30 30
43 44 45 39 41 45 48 48 44 43 42 44 44 38 30 27 18 15 15 12 11 12 9 7 8 9 6 2 1 2 7 10 10 11 13 14 18 20 20 22 23 24 25 26
50 43 42 45 45 42 45 44 42 42 41 40 38 30 22 20 12 10 10 11 10 10 11 10 8 6 1 4 9 15 14 11 10 11 14 15 15 20 23 22 22 23 24 26
50 44 44 47 43 42 42 39 37 35 36 34 31 24 20 17 11 9 10 12 14 16 13 9 5 1 5 8 8 7 8 9 10 13 15 17 18 19 21 22 23 25 28 30
42 42 48 48 44 36 38 34 32 27 26 26 25 23 17 14 11 13 15 15 12 7 5 1 2 3 5 7 9 9 10 11 12 15 16 18 20 21 20 24 26 29 29 31
43 45 49 48 44 41 34 31 23 18 19 22 22 30 29 25 18 13 10 7 10 8 5 3 6 6 8 9 10 11 12 13 14 16 18 18 19 20 21 24 26 29 30 32
38 37 34 33 36 32 25 20 19 17 12 19 28 14 19 19 17 11 8 4 6 7 6 6 7 9 10 10 11 13 15 15 16 17 18 19 20 21 23 25 27 28 28 28
23 25 27 27 21 19 18 15 9 8 7 5 20 17 18 10 13 10 5 8 9 9 7 8 9 11 12 13 13 14 16 16 16 18 20 20 21 21 22 23 23 24 24 24
20 24 28 29 23 15 13 13 12 8 3 5 11 22 16 7 8 10 9 8 9 8 10 11 12 12 13 14 15 15 16 17 18 19 19 20 19 19 20 21 22 23 24 24
18 15 19 17 10 10 7 10 9 12 4 12 9 15 5 7 12 10 9 9 9 10 12 12 13 14 15 16 16 16 17 17 18 19 19 18 19 19 20 20 21 22 23 24
15 17 3 12 5 3 5 1 4 2 2 8 12 4 7 9 9 8 7 9 10 12 13 13 13 15 16 17 18 17 18 18 18 18 17 17 17 17 18 19 19 21 22 22
8 21 23 21 16 4 3 1 12 4 8 21 23 17 14 11 10 10 10 11 12 13 13 14 15 17 18 18 17 18 18 17 17 17 17 16 16 17 17 18 19 20 22 23
7 15 17 22 6 16 33 30 26 12 16 14 12 12 12 11 11 11 12 12 13 13 12 14 15 17 18 19 19 18 17 17 16 15 15 15 15 16 16 17 19 20 21 22
19 21 22 21 19 20 17 15 16 16 15 14 14 13 12 12 11 12 11 11 12 13 13 13 15 17 18 19 18 17 16 15 15 15 14 14 14 15 16 17 17 18 20 21
21 21 20 18 18 18 17 16 16 15 14 13 12 12 12 11 12 13 12 12 13 13 14 15 16 16 18 18 16 16 15 15 15 14 14 14 14 15 15 16 18 19 20 20
22 21 18 16 15 17 17 19 13 14 16 12 12 13 13 13 13 13 14 14 14 14 15 16 15 16 17 16 15 14 14 14 14 13 13 13 14 15 16 17 17 18 19 18
23 24 22 16 16 15 17 18 18 17 16 13 13 14 15 16 16 16 15 14 14 15 16 16 17 15 15 14 14 14 13 13 13 12 12 12 12 10 9 12 11 9 10 12
20 21 21 20 18 18 18 18 17 16 15 15 15 17 18 18 17 16 16 17 16 17 17 17 17 17 15 15 14 13 12 12 11 10 10 11 9 8 9 10 11 12 13 14
Wind_Direction
282 280 277 273 273 274 276 279 278 279 284 273 284 283 280 289 289 256 211 198 190 191 188 188 185 184 185 186 184 185 189 191 196 202 206 217 208 202 206 217 256 315 332 340
275 279 277 271 269 275 273 277 275 278 276 288 282 292 285 283 293 255 241 206 201 196 192 188 188 186 186 184 182 181 187 192 198 202 214 245 239 263 278 296 314 331 340 335
276 279 279 267 262 272 276 274 279 274 276 286 281 281 287 289 284 255 227 221 212 209 198 195 190 191 195 192 188 186 191 196 200 206 237 256 266 281 284 282 302 316 319 327
279 283 266 268 276 276 272 275 276 281 284 287 289 284 282 279 283 271 233 221 228 221 217 220 197 223 260 214 199 188 189 202 215 208 235 285 286 295 293 290 296 306 313 317
275 275 273 266 276 277 278 267 286 282 284 287 294 294 279 281 282 272 265 234 220 213 222 248 227 241 220 227 208 182 177 185 193 201 288 322 342 347 306 295 296 299 309 315
274 274 273 285 286 286 287 264 284 285 286 287 292 282 272 276 283 276 267 245 233 244 243 242 237 224 227 215 200 182 173 156 161 218 287 316 315 316 315 294 284 289 304 311
272 271 277 289 290 284 274 268 287 283 283 283 281 281 276 275 269 269 265 256 257 238 231 215 211 214 219 211 190 168 141 130 139 305 301 293 295 330 323 234 255 292 306 310
273 271 272 294 295 292 285 288 289 284 283 283 280 278 272 272 262 280 255 241 238 228 212 198 192 190 193 195 167 154 141 123 154 278 322 330 336 354 355 2 334 328 309 312
273 274 285 297 295 293 293 288 290 286 282 284 277 274 270 265 267 265 242 220 222 201 212 214 196 187 183 179 163 158 153 314 328 336 341 349 356 356 352 343 329 320 310 311
278 280 282 285 290 294 293 291 288 286 282 282 278 275 269 263 257 248 229 203 203 207 201 205 193 179 168 174 183 196 254 344 338 338 338 342 342 341 338 333 327 320 314 317
276 280 284 285 287 288 285 287 285 284 284 284 282 277 273 255 245 239 235 223 215 201 200 187 161 146 146 170 248 292 321 321 322 329 337 346 349 343 339 336 331 328 329 330
275 283 283 283 281 286 282 282 280 281 286 289 276 274 266 245 244 232 219 209 190 175 154 153 142 132 102 322 315 313 318 322 333 341 343 343 344 346 352 350 350 349 346 339
273 279 279 273 279 282 280 278 282 277 280 284 276 269 258 238 228 184 159 143 137 135 132 132 132 79 322 324 341 352 352 352 350 344 343 341 340 336 336 343 346 344 342 340
277 281 275 271 272 280 278 277 277 282 282 276 286 261 239 213 158 145 139 134 130 137 125 250 337 23 18 29 22 13 5 357 349 345 344 342 339 338 338 335 335 336 339 337
249 261 254 262 267 266 273 272 260 287 296 273 296 255 223 153 140 143 132 149 120 102 89 41 47 33 21 22 21 16 6 358 352 348 348 349 348 344 343 341 341 340 339 339
253 264 268 264 255 256 268 266 247 256 320 311 288 271 180 130 131 116 112 117 92 88 86 67 38 22 27 27 14 2 358 356 353 351 350 348 346 344 344 344 344 347 348 349
204 216 235 243 248 256 255 244 251 270 246 304 168 185 183 126 112 111 77 70 74 73 56 33 20 19 17 13 9 1 358 356 356 352 348 344 345 347 350 352 355 356 358 359
193 204 214 219 230 244 246 248 259 269 200 188 274 227 215 96 103 98 94 83 65 38 28 18 17 14 15 14 12 7 3 356 352 351 351 349 351 354 356 357 0 2 3 4
154 191 202 231 248 264 256 247 256 266 251 85 213 215 190 94 87 89 80 65 50 34 13 15 21 21 19 18 16 9 4 359 356 355 356 357 355 355 356 359 3 6 8 11
154 156 317 61 340 21 83 260 330 65 116 123 106 157 89 79 74 63 44 33 25 37 44 35 32 27 25 21 16 11 4 1 359 359 5 4 2 0 0 5 9 12 14 15
65 127 136 132 189 160 48 278 189 166 95 103 109 92 81 71 64 62 50 44 41 47 43 43 32 24 22 21 17 13 11 12 10 5 5 7 6 4 7 10 11 10 1 359
30 30 37 134 100 63 107 139 143 75 81 75 68 65 62 57 52 37 27 59 63 58 44 30 27 24 18 16 14 12 14 14 17 15 11 9 10 11 12 8 4 2 360 360
24 32 41 46 51 56 55 56 55 60 64 65 68 68 64 58 54 51 41 34 43 35 32 31 29 25 21 16 16 21 27 32 30 22 20 20 18 15 10 8 6 5 1 358
25 29 34 37 41 42 42 40 46 46 50 51 50 51 58 44 22 19 51 47 39 31 26 32 26 24 25 23 25 30 36 39 38 36 28 20 14 12 11 8 359 354 355 357
28 27 20 18 20 28 37 48 34 30 40 24 30 38 40 21 38 58 49 41 40 37 28 26 35 32 26 30 37 38 40 40 41 32 26 20 13 7 358 356 357 356 352 359
34 35 29 17 17 13 31 45 37 33 31 22 22 34 38 47 53 54 51 46 37 31 33 36 44 53 51 64 65 66 64 56 47 43 39 29 24 29 27 13 12 16 18 14
22 21 20 18 7 13 22 22 37 29 36 53 55 61 62 58 59 53 41 28 39 48 59 54 57 68 84 83 83 78 71 67 72 68 55 38 38 32 25 20 17 13 5 3